Regional Weather Roundup
Issued by NWS

Home | Current Version | Previous Version | Graphics & Text | Print | Product List | Glossary On
Versions: 1 2 3 4 5 6 7 8 9 10 11 12 13 14 15 16 17 18 19 20 21 22 23 24 25 26 27 28 29 30 31 32 33 34 35 36 37 38 39 40 41 42 43 44 45 46 47 48 49 50
878
ASUS45 KBOI 171210
RWRID

IDAHO REGIONAL WEATHER ROUNDUP
NATIONAL WEATHER SERVICE BOISE ID
600 AM MDT TUE OCT 17 2017

NOTE: "FAIR" INDICATES FEW OR NO CLOUDS BELOW 12000 FEET
WITH NO SIGNIFICANT WEATHER AND/OR OBSTRUCTIONS TO VISIBILITY

IDZ012-014-171300-
SOUTHWEST IDAHO


CITY           SKY/WX    TMP DP  RH WIND       PRES   REMARKS
BOISE          CLEAR     39  30  70 CALM      30.21R
CALDWELL       CLEAR     32  27  81 SE3       30.21F
MOUNTAIN HOME  PTCLDY    37  28  67 E7        30.21R WCI  32
$$

IDZ016-017-171300-
SOUTHCENTRAL IDAHO


CITY           SKY/WX    TMP DP  RH WIND       PRES   REMARKS
BURLEY         CLEAR     30  26  85 N5        30.25S WCI  25
JEROME         CLEAR     41  26  55 NE15      30.24F
TWIN FALLS     CLEAR     31  24  75 SE7       30.24F WCI  24
$$

IDZ019>023-171300-
SOUTHEAST IDAHO


CITY           SKY/WX    TMP DP  RH WIND       PRES   REMARKS
IDAHO FALLS    CLOUDY    26  23  88 N3        30.31S
POCATELLO      CLOUDY    28  24  85 CALM      30.29F
REXBURG        CLOUDY    27  23  85 NE5       30.31S WCI  22
$$

IDZ006-010-011-018-031-032-171300-
CENTRAL IDAHO MOUNTAINS


CITY           SKY/WX    TMP DP  RH WIND       PRES   REMARKS
MCCALL         CLEAR     27  24  89 CALM      30.22F
HAILEY         CLEAR     34  23  64 NW12G17   30.32S WCI  25
STANLEY          N/A     21  19  92 CALM      30.33F
SALMON         CLOUDY    28  24  85 CALM      30.27S
CHALLIS        CLEAR     28  22  78 SW3       30.28S
$$

IDZ002-004-006-007-026-171300-
NORTHERN IDAHO


CITY           SKY/WX    TMP DP  RH WIND       PRES   REMARKS
LEWISTON       CLEAR     46  37  71 NE9       30.03F
LOWELL           N/A     37  36  96 N6        30.18F WCI  32
COEUR D`ALENE  CLEAR     43  37  79 S8        30.00F
MULLAN PASS    CLEAR     39  23  52 VRB3      30.08F
$$




USA.gov is the U.S. government's official web portal to all federal, state and local government web resources and services.